Location: *
(33.8649°S, 62.1526°E)
Time: 04:48:40
(UTC+00:00)

DELTA 2 R/B (1) - Pass Details

Date: 17 January 2021
Orbit: 790 x 802 km, 39.6° (Epoch: 27 February)

Event Time Altitude Azimuth Distance (km) Brightness Sun altitude
Exits shadow 22:27:42 57° 258° (WSW) 939 3.7 -25.4°
Maximum altitude 22:28:45 72° 199° (SSW) 844 3.7 -25.3°
Drops below altitude 10° 22:34:23 10° 114° (ESE) 2,386 6.9 -24.6°
Sets 22:36:54 0° 112° (ESE) 3,320 7.8 -24.2°
